Three Rivers, MI

12:08 AM EST on December 03, 2016 (GMT -0500)
Three Rivers Municipal-Haines

Weather History for KHAI - June, 2013

Change the Weather History Date:

Wednesday, June 26, 2013

  Actual Average Record
Temperature  
Mean Temperature 74 °F -  
Max Temperature 81 °F 83 °F 103 °F (1988)
Min Temperature 66 °F 58 °F 45 °F (1979)
Cooling Degree Days 8    
Growing Degree Days 24 (Base 50)    
Moisture  
Dew Point 66 °F    
Average Humidity 88    
Maximum Humidity 95    
Minimum Humidity 66    
Precipitation  
Precipitation 0.00 in - - ()
Sea Level Pressure  
Sea Level Pressure 29.83 in    
Wind  
Wind Speed 5 mph (South)    
Max Wind Speed 12 mph    
Max Gust Speed 23 mph    
Visibility 8 miles    
Events Rain    
Averages and records for this station are not official NWS values.
T = Trace of Precipitation, MM = Missing Value Source: NWS Daily Summary

Daily Weather History Graph

Daily Weather History Graph

Search for Another Location

Airport or City:

Trip Planner

Search our weather history database for the weather conditions in past years. The results will help you decide how hot, cold, wet, or windy it might be!

Date:

Astronomy

Jun. 26, 2013 Rise Set
Actual Time 6:08 AM EDT 9:21 PM EDT
Civil Twilight 5:34 AM EDT 9:56 PM EDT
Nautical Twilight 4:49 AM EDT 10:40 PM EDT
Astronomical Twilight 3:56 AM EDT 11:33 PM EDT
Moon 11:40 PM EDT (6/26) 10:03 AM EDT (6/26)
Length of Visible Light 16h 22m
Length of Day
15h 13m
Waning Gibbous, 85% of the Moon is Illuminated
Jun 26
Waning Gibbous
Jun 30
Last Quarter
Jul 8
New
Jul 15
First Quarter
Jul 22
Full

Hourly Weather History & Observations

Time (EDT) Temp. Heat Index Dew Point Humidity Pressure Visibility Wind Dir Wind Speed Gust Speed Precip Events Conditions
12:01 AM 68.0 °F - 66.2 °F 94% 29.90 in 10.0 mi ESE 8.1 mph - N/A Rain Light Rain
12:20 AM 68.0 °F - 66.2 °F 94% 29.90 in 10.0 mi SE 8.1 mph - N/A   Mostly Cloudy
12:44 AM 68.0 °F - 66.2 °F 94% 29.90 in 7.0 mi ESE 5.8 mph - N/A   Overcast
1:01 AM 68.0 °F - 66.2 °F 94% 29.90 in 10.0 mi ESE 4.6 mph - N/A   Mostly Cloudy
1:21 AM 68.0 °F - 66.2 °F 94% 29.90 in 10.0 mi ESE 5.8 mph - N/A   Mostly Cloudy
1:43 AM 68.0 °F - 66.2 °F 94% 29.90 in 10.0 mi Calm Calm - N/A   Overcast
2:03 AM 68.0 °F - 66.2 °F 94% 29.93 in 10.0 mi North 10.4 mph - N/A   Overcast
2:21 AM 66.2 °F - 62.6 °F 88% 29.90 in 7.0 mi ENE 5.8 mph - N/A Rain Light Rain
2:41 AM 66.2 °F - 64.4 °F 94% 29.88 in 10.0 mi Calm Calm - N/A Rain Rain
3:00 AM 68.0 °F - 64.4 °F 88% 29.86 in 7.0 mi South 10.4 mph - N/A Rain Heavy Rain
3:20 AM 66.2 °F - 64.4 °F 94% 29.87 in 10.0 mi WSW 3.5 mph - N/A Rain Light Rain
3:40 AM 66.2 °F - 64.4 °F 94% 29.88 in 7.0 mi SW 4.6 mph - N/A Rain Light Rain
4:00 AM 66.2 °F - 64.4 °F 94% 29.88 in 7.0 mi SSW 5.8 mph - N/A Rain Rain
4:21 AM 66.2 °F - 64.4 °F 94% 29.86 in 7.0 mi South 8.1 mph - N/A Rain Rain
4:40 AM 66.2 °F - 64.4 °F 94% 29.84 in 7.0 mi SSW 8.1 mph - N/A Rain Light Rain
5:00 AM 66.2 °F - 64.4 °F 94% 29.82 in 7.0 mi South 8.1 mph - N/A Rain Light Rain
5:20 AM 66.2 °F - 64.4 °F 94% 29.83 in 10.0 mi SW 3.5 mph - N/A   Clear
5:40 AM 66.2 °F - 64.4 °F 94% 29.82 in 10.0 mi South 5.8 mph - N/A   Clear
6:00 AM 66.2 °F - 64.4 °F 94% 29.82 in 10.0 mi South 3.5 mph - N/A   Clear
6:20 AM 66.2 °F - 64.4 °F 94% 29.84 in 10.0 mi Calm Calm - N/A   Clear
6:40 AM 66.2 °F - 64.4 °F 94% 29.85 in 10.0 mi Calm Calm - N/A   Clear
7:00 AM 66.2 °F - 64.4 °F 94% 29.84 in 7.0 mi Calm Calm - N/A   Clear
7:20 AM 66.2 °F - 64.4 °F 94% 29.84 in 7.0 mi Calm Calm - N/A   Clear
7:39 AM 66.2 °F - 64.4 °F 94% 29.85 in 7.0 mi SW 3.5 mph - N/A   Clear
7:59 AM 66.2 °F - 64.4 °F 94% 29.85 in 10.0 mi SSW 3.5 mph - N/A   Clear
8:19 AM 66.2 °F - 64.4 °F 94% 29.87 in 7.0 mi Calm Calm - N/A   Clear
8:40 AM 66.2 °F - 64.4 °F 94% 29.87 in 7.0 mi Calm Calm - N/A   Scattered Clouds
8:59 AM 68.0 °F - 66.2 °F 94% 29.88 in 4.0 mi SW 5.8 mph - N/A Rain Rain
9:19 AM 68.0 °F - 66.2 °F 94% 29.89 in 2.0 mi SW 9.2 mph - N/A Rain Rain
9:39 AM 68.0 °F - 66.2 °F 94% 29.89 in 5.0 mi SW 9.2 mph - N/A Rain Light Rain
9:59 AM 68.0 °F - 66.2 °F 94% 29.90 in 7.0 mi West 6.9 mph - N/A Rain Rain
10:19 AM 66.2 °F - 64.4 °F 94% 29.90 in 5.0 mi West 9.2 mph 18.4 mph N/A Rain Heavy Rain
10:39 AM 66.2 °F - 64.4 °F 94% 29.90 in 5.0 mi SW 4.6 mph - N/A Rain Rain
10:59 AM 66.2 °F - 64.4 °F 94% 29.89 in 7.0 mi SSW 6.9 mph - N/A Rain Light Rain
11:21 AM 66.2 °F - 64.4 °F 94% 29.85 in 10.0 mi NE 4.6 mph - N/A Rain Light Rain
11:40 AM 68.0 °F - 66.2 °F 94% 29.82 in 7.0 mi East 11.5 mph - N/A Rain Light Rain
11:59 AM 68.0 °F - 66.2 °F 94% 29.83 in 10.0 mi SE 6.9 mph - N/A   Scattered Clouds
12:19 PM 69.8 °F - 68.0 °F 94% 29.84 in 10.0 mi South 5.8 mph - N/A   Clear
12:39 PM 71.6 °F - 66.2 °F 83% 29.84 in 10.0 mi SE 3.5 mph - N/A   Clear
12:59 PM 73.4 °F - 68.0 °F 83% 29.84 in 10.0 mi South 5.8 mph - N/A   Scattered Clouds
1:19 PM 75.2 °F - 69.8 °F 83% 29.83 in 10.0 mi SE 9.2 mph - N/A   Scattered Clouds
1:29 PM 75.0 °F - 69.3 °F 82% 29.83 in 10.0 mi SSW 9.2 mph - N/A   Scattered Clouds
1:35 PM 75.0 °F - 68.5 °F 80% 29.83 in 10.0 mi South 8.1 mph - N/A   Scattered Clouds
1:55 PM 75.6 °F - 68.9 °F 80% 29.82 in 10.0 mi SE 6.9 mph - N/A   Scattered Clouds
2:12 PM 77.0 °F - 69.6 °F 78% 29.81 in 10.0 mi SSE 3.5 mph - N/A   Scattered Clouds
2:35 PM 78.8 °F - 69.4 °F 73% 29.80 in 10.0 mi SE 9.2 mph - N/A   Clear
2:54 PM 79.5 °F - 68.4 °F 69% 29.80 in 10.0 mi South 9.2 mph - N/A   Clear
3:15 PM 78.3 °F - 67.3 °F 69% 29.80 in 10.0 mi SSE 4.6 mph - N/A   Clear
3:35 PM 78.4 °F - 68.2 °F 71% 29.80 in 10.0 mi South 3.5 mph - N/A   Scattered Clouds
3:54 PM 79.0 °F - 68.0 °F 69% 29.80 in 10.0 mi South 5.8 mph - N/A   Scattered Clouds
4:15 PM 81.5 °F 84.9 °F 69.4 °F 67% 29.79 in 10.0 mi SE 5.8 mph - N/A   Scattered Clouds
4:35 PM 81.1 °F 84.4 °F 69.1 °F 67% 29.78 in 10.0 mi South 6.9 mph - N/A   Clear
4:54 PM 81.1 °F 84.2 °F 68.7 °F 66% 29.76 in 10.0 mi South 9.2 mph - N/A   Clear
5:15 PM 79.2 °F - 68.2 °F 69% 29.76 in 10.0 mi SSE 4.6 mph - N/A   Mostly Cloudy
5:35 PM 74.1 °F - 66.6 °F 77% 29.77 in 5.0 mi WSW 10.4 mph 23.0 mph N/A Rain Rain
5:54 PM 69.8 °F - 66.2 °F 88% 29.77 in 5.0 mi SW 4.6 mph - N/A Rain Light Rain
6:15 PM 70.0 °F - 66.7 °F 89% 29.76 in 7.0 mi WSW 3.5 mph - N/A Rain Light Rain
6:34 PM 72.0 °F - 68.7 °F 89% 29.76 in 10.0 mi SSW 6.9 mph - N/A   Mostly Cloudy
6:55 PM 72.5 °F - 68.5 °F 87% 29.76 in 10.0 mi Calm Calm - N/A   Scattered Clouds
7:15 PM 72.7 °F - 68.2 °F 86% 29.77 in 10.0 mi Calm Calm - N/A   Mostly Cloudy
7:34 PM 72.9 °F - 68.2 °F 85% 29.77 in 10.0 mi Calm Calm - N/A   Overcast
7:55 PM 72.9 °F - 68.7 °F 87% 29.77 in 10.0 mi Calm Calm - N/A   Overcast
8:15 PM 72.9 °F - 68.9 °F 87% 29.77 in 10.0 mi North 3.5 mph - N/A   Mostly Cloudy
8:34 PM 71.6 °F - 67.1 °F 86% 29.76 in 10.0 mi Calm Calm - N/A   Scattered Clouds
8:55 PM 71.6 °F - 66.2 °F 83% 29.76 in 10.0 mi Calm Calm - N/A   Scattered Clouds
9:15 PM 70.3 °F - 67.1 °F 89% 29.75 in 10.0 mi Calm Calm - N/A   Clear
9:34 PM 69.1 °F - 66.2 °F 91% 29.76 in 7.0 mi SW 4.6 mph - N/A   Clear
9:55 PM 69.4 °F - 66.4 °F 90% 29.77 in 10.0 mi Calm Calm - N/A   Scattered Clouds
10:14 PM 70.3 °F - 68.2 °F 93% 29.77 in 7.0 mi South 4.6 mph - N/A   Scattered Clouds
10:35 PM 70.0 °F - 68.0 °F 93% 29.76 in 7.0 mi Calm Calm - N/A   Clear
10:55 PM 69.8 °F - 68.0 °F 94% 29.76 in 7.0 mi Calm Calm - N/A   Clear
11:14 PM 69.3 °F - 67.5 °F 94% 29.77 in 5.0 mi Calm Calm - N/A   Scattered Clouds
11:35 PM 69.1 °F - 67.3 °F 94% 29.77 in 3.0 mi SSW 3.5 mph - N/A   Mostly Cloudy
11:55 PM 69.6 °F - 68.0 °F 95% 29.77 in 4.0 mi Calm Calm - N/A   Scattered Clouds